User: anonymous   Login
Location: Cronhütte
(48.9135°N, 9.6869°E)
Time: 08:42:03
(UTC+00:00)
Language:

Cosmos 1346 Rocket - Orbit

View from above orbital plane
View from above orbital plane
View from above satellite
View from above satellite

Ground track
Ground track

The orbit data is extracted from the following two-line orbital elements,

1 13121U 82027B   24196.90104816  .00006815  00000-0  33869-3 0  9990
2 13121  81.1925  24.6239 0010923 148.0102 212.1793 15.17465628306787
Epoch (UTC): 14 July 2024 21:37:30
Eccentricity: 0.0010923
inclination: 81.1925°
perigee height: 506 km
apogee height: 521 km
right ascension of ascending node: 24.6239°
argument of perigee: 148.0102°
revolutions per day: 15.17465628
mean anomaly at epoch: 212.1793°
orbit number at epoch: 30678

The dashed part of the orbit path shows where the satellite is in the earth's shadow,  

DLR